Location: Cueva de Ratón
(10.1013°N, 67.6606°W)
Time: 19:12:36
(UTC+00:00)

Meteor 2-6 Rocket - Pass Details

Date: 02 December 2023
Orbit: 806 x 913 km, 81.3° (Epoch: 28 February)

Event Time Altitude Azimuth Distance (km) Brightness Sun altitude
Rises 23:08:05 0° 174° (S) 3,450 7.6 -14.8°
Reaches altitude 10° 23:10:33 10° 169° (SSE) 2,528 6.8 -15.4°
Maximum altitude 23:16:08 51° 94° (E) 1,106 4.4 -16.7°
Enters shadow 23:21:00 14° 22° (NNE) 2,282 6.1 -17.8°
